Time,TemperatureF,DewpointF,PressureIn,WindDirection,WindDirectionDegrees,WindSpeedMPH,WindSpeedGustMPH,Humidity,HourlyPrecipIn,Conditions,Clouds,dailyrainin,SoftwareType,DateUTC
2013-07-28 00:02:00,65.3,50.6,29.92,WNW,300,11.0,19.0,59,0.00,,,0.00,Weather View 32 v70,2013-07-28 07:02:00,
2013-07-28 00:07:00,65.2,50.5,29.92,WSW,242,8.0,19.0,59,0.00,,,0.00,Weather View 32 v70,2013-07-28 07:07:00,
2013-07-28 00:12:00,64.8,50.6,29.92,West,279,8.0,19.0,60,0.00,,,0.00,Weather View 32 v70,2013-07-28 07:12:00,
2013-07-28 00:17:00,64.7,50.5,29.92,West,265,8.0,19.0,60,0.00,,,0.00,Weather View 32 v70,2013-07-28 07:17:00,
2013-07-28 00:22:00,64.5,50.7,29.92,South,188,5.0,19.0,61,0.00,,,0.00,Weather View 32 v70,2013-07-28 07:22:00,
2013-07-28 00:27:00,64.3,50.5,29.92,WSW,250,6.0,19.0,61,0.00,,,0.00,Weather View 32 v70,2013-07-28 07:27:00,
2013-07-28 00:32:00,64.2,50.4,29.93,West,265,6.0,19.0,61,0.00,,,0.00,Weather View 32 v70,2013-07-28 07:32:00,
2013-07-28 00:37:00,63.9,50.6,29.93,West,275,7.0,19.0,62,0.00,,,0.00,Weather View 32 v70,2013-07-28 07:37:00,
2013-07-28 00:42:00,63.7,50.4,29.92,West,277,2.0,18.0,62,0.00,,,0.00,Weather View 32 v70,2013-07-28 07:42:00,
2013-07-28 00:47:00,63.7,50.4,29.93,West,267,6.0,18.0,62,0.00,,,0.00,Weather View 32 v70,2013-07-28 07:47:00,
2013-07-28 00:52:00,63.5,50.6,29.93,NW,317,3.0,18.0,63,0.00,,,0.00,Weather View 32 v70,2013-07-28 07:52:00,
2013-07-28 00:57:00,63.4,50.6,29.93,SW,215,15.0,18.0,63,0.00,,,0.00,Weather View 32 v70,2013-07-28 07:57:00,
2013-07-28 01:02:00,63.2,50.4,29.93,West,263,6.0,19.0,63,0.00,,,0.00,Weather View 32 v70,2013-07-28 08:02:00,
2013-07-28 01:07:00,63.2,50.8,29.93,West,281,3.0,19.0,64,0.00,,,0.00,Weather View 32 v70,2013-07-28 08:07:00,
2013-07-28 01:12:00,62.9,50.5,29.93,WSW,254,6.0,19.0,64,0.00,,,0.00,Weather View 32 v70,2013-07-28 08:12:00,
2013-07-28 01:17:00,62.9,50.5,29.93,West,266,4.0,19.0,64,0.00,,,0.00,Weather View 32 v70,2013-07-28 08:17:00,
2013-07-28 01:22:00,62.7,50.3,29.93,West,260,8.0,19.0,64,0.00,,,0.00,Weather View 32 v70,2013-07-28 08:22:00,
2013-07-28 01:27:00,62.6,50.6,29.93,WSW,254,4.0,19.0,65,0.00,,,0.00,Weather View 32 v70,2013-07-28 08:27:00,
2013-07-28 01:32:00,62.6,50.6,29.93,West,262,12.0,22.0,65,0.00,,,0.00,Weather View 32 v70,2013-07-28 08:32:00,
2013-07-28 01:37:00,62.6,50.6,29.92,WSW,238,5.0,22.0,65,0.00,,,0.00,Weather View 32 v70,2013-07-28 08:37:00,
2013-07-28 01:42:00,62.4,50.4,29.92,West,279,6.0,22.0,65,0.00,,,0.00,Weather View 32 v70,2013-07-28 08:42:00,
2013-07-28 01:47:00,62.4,50.4,29.92,West,273,7.0,22.0,65,0.00,,,0.00,Weather View 32 v70,2013-07-28 08:47:00,
2013-07-28 01:52:00,62.4,50.4,29.92,WNW,296,8.0,22.0,65,0.00,,,0.00,Weather View 32 v70,2013-07-28 08:52:00,
2013-07-28 01:57:00,62.4,50.0,29.92,WSW,250,5.0,22.0,64,0.00,,,0.00,Weather View 32 v70,2013-07-28 08:57:00,
2013-07-28 02:02:00,62.3,50.4,29.92,West,281,4.0,22.0,65,0.00,,,0.00,Weather View 32 v70,2013-07-28 09:02:00,
2013-07-28 02:07:00,62.1,50.2,29.92,West,269,11.0,22.0,65,0.00,,,0.00,Weather View 32 v70,2013-07-28 09:07:00,
2013-07-28 02:12:00,61.8,49.9,29.92,SW,236,16.0,22.0,65,0.00,,,0.00,Weather View 32 v70,2013-07-28 09:12:00,
2013-07-28 02:17:00,61.6,50.1,29.92,WNW,300,12.0,22.0,66,0.00,,,0.00,Weather View 32 v70,2013-07-28 09:17:00,
2013-07-28 02:22:00,61.3,50.2,29.92,WNW,287,7.0,22.0,67,0.00,,,0.00,Weather View 32 v70,2013-07-28 09:22:00,
2013-07-28 02:27:00,61.2,50.1,29.92,West,263,5.0,22.0,67,0.00,,,0.00,Weather View 32 v70,2013-07-28 09:27:00,
2013-07-28 02:32:00,60.9,50.2,29.92,West,269,9.0,22.0,68,0.00,,,0.00,Weather View 32 v70,2013-07-28 09:32:00,
2013-07-28 02:37:00,60.7,50.0,29.92,West,275,13.0,22.0,68,0.00,,,0.00,Weather View 32 v70,2013-07-28 09:37:00,
2013-07-28 02:42:00,60.7,50.0,29.92,West,263,11.0,22.0,68,0.00,,,0.00,Weather View 32 v70,2013-07-28 09:42:00,
2013-07-28 02:47:00,60.4,50.2,29.92,West,260,12.0,22.0,69,0.00,,,0.00,Weather View 32 v70,2013-07-28 09:47:00,
2013-07-28 02:52:00,60.2,50.0,29.92,West,269,8.0,22.0,69,0.00,,,0.00,Weather View 32 v70,2013-07-28 09:52:00,
2013-07-28 02:57:00,60.1,49.9,29.92,WSW,251,7.0,22.0,69,0.00,,,0.00,Weather View 32 v70,2013-07-28 09:57:00,
2013-07-28 03:02:00,60.1,49.9,29.92,West,273,11.0,22.0,69,0.00,,,0.00,Weather View 32 v70,2013-07-28 10:02:00,
2013-07-28 03:07:00,60.1,49.9,29.92,West,266,9.0,22.0,69,0.00,,,0.00,Weather View 32 v70,2013-07-28 10:07:00,
2013-07-28 03:12:00,60.1,49.9,29.93,West,276,15.0,22.0,69,0.00,,,0.00,Weather View 32 v70,2013-07-28 10:12:00,
2013-07-28 03:17:00,59.9,49.7,29.93,West,259,10.0,22.0,69,0.00,,,0.00,Weather View 32 v70,2013-07-28 10:17:00,
2013-07-28 03:22:00,59.8,50.0,29.92,West,275,8.0,22.0,70,0.00,,,0.00,Weather View 32 v70,2013-07-28 10:22:00,
2013-07-28 03:27:00,59.6,49.8,29.92,West,268,8.0,22.0,70,0.00,,,0.00,Weather View 32 v70,2013-07-28 10:27:00,
2013-07-28 03:32:00,59.6,49.8,29.92,WSW,257,25.0,25.0,70,0.00,,,0.00,Weather View 32 v70,2013-07-28 10:32:00,
2013-07-28 03:37:00,59.5,49.7,29.92,WNW,284,8.0,25.0,70,0.00,,,0.00,Weather View 32 v70,2013-07-28 10:37:00,
2013-07-28 03:42:00,59.3,49.5,29.92,WNW,282,6.0,25.0,70,0.00,,,0.00,Weather View 32 v70,2013-07-28 10:42:00,
2013-07-28 03:47:00,59.3,49.5,29.93,West,271,6.0,25.0,70,0.00,,,0.00,Weather View 32 v70,2013-07-28 10:47:00,
2013-07-28 03:52:00,59.2,49.8,29.93,West,265,4.0,25.0,71,0.00,,,0.00,Weather View 32 v70,2013-07-28 10:52:00,
2013-07-28 03:57:00,59.0,49.6,29.93,SSW,205,6.0,25.0,71,0.00,,,0.00,Weather View 32 v70,2013-07-28 10:57:00,
2013-07-28 04:02:00,58.9,49.9,29.94,WSW,250,2.0,25.0,72,0.00,,,0.00,Weather View 32 v70,2013-07-28 11:02:00,
2013-07-28 04:07:00,58.6,50.0,29.93,WSW,243,3.0,25.0,73,0.00,,,0.00,Weather View 32 v70,2013-07-28 11:07:00,
2013-07-28 04:12:00,58.3,49.7,29.93,South,179,3.0,25.0,73,0.00,,,0.00,Weather View 32 v70,2013-07-28 11:12:00,
2013-07-28 04:17:00,58.1,49.5,29.94,West,267,3.0,25.0,73,0.00,,,0.00,Weather View 32 v70,2013-07-28 11:17:00,
2013-07-28 04:23:00,58.0,49.7,29.94,West,262,2.0,25.0,74,0.00,,,0.00,Weather View 32 v70,2013-07-28 11:23:00,
2013-07-28 04:28:00,58.0,49.7,29.94,SSW,211,2.0,25.0,74,0.00,,,0.00,Weather View 32 v70,2013-07-28 11:28:00,
2013-07-28 04:33:00,57.8,48.4,29.94,West,272,2.0,25.0,71,0.00,,,0.00,Weather View 32 v70,2013-07-28 11:33:00,
2013-07-28 04:38:00,58.0,49.7,29.94,WSW,258,3.0,16.0,74,0.00,,,0.00,Weather View 32 v70,2013-07-28 11:38:00,
2013-07-28 04:43:00,57.8,49.5,29.94,West,262,2.0,16.0,74,0.00,,,0.00,Weather View 32 v70,2013-07-28 11:43:00,
2013-07-28 04:48:00,57.8,49.2,29.94,South,179,3.0,16.0,73,0.00,,,0.00,Weather View 32 v70,2013-07-28 11:48:00,
2013-07-28 04:53:00,57.8,49.5,29.94,WSW,246,0.0,16.0,74,0.00,,,0.00,Weather View 32 v70,2013-07-28 11:53:00,
2013-07-28 04:58:00,57.6,49.4,29.94,WNW,288,2.0,16.0,74,0.00,,,0.00,Weather View 32 v70,2013-07-28 11:58:00,
2013-07-28 05:03:00,57.8,49.2,29.94,WSW,252,4.0,16.0,73,0.00,,,0.00,Weather View 32 v70,2013-07-28 12:03:00,
2013-07-28 05:08:00,57.8,49.2,29.94,WSW,237,7.0,21.0,73,0.00,,,0.00,Weather View 32 v70,2013-07-28 12:08:00,
2013-07-28 05:13:00,58.1,49.1,29.94,West,274,11.0,21.0,72,0.00,,,0.00,Weather View 32 v70,2013-07-28 12:13:00,
2013-07-28 05:18:00,58.1,49.1,29.94,West,259,4.0,21.0,72,0.00,,,0.00,Weather View 32 v70,2013-07-28 12:18:00,
2013-07-28 05:23:00,58.4,49.0,29.94,North,0,5.0,21.0,71,0.00,,,0.00,Weather View 32 v70,2013-07-28 12:23:00,
2013-07-28 05:28:00,58.3,48.9,29.94,WSW,252,5.0,21.0,71,0.00,,,0.00,Weather View 32 v70,2013-07-28 12:28:00,
2013-07-28 05:33:00,58.1,49.1,29.94,WSW,252,4.0,21.0,72,0.00,,,0.00,Weather View 32 v70,2013-07-28 12:33:00,
2013-07-28 05:38:00,58.0,49.0,29.94,West,265,3.0,21.0,72,0.00,,,0.00,Weather View 32 v70,2013-07-28 12:38:00,
2013-07-28 05:43:00,57.8,49.2,29.95,West,272,5.0,21.0,73,0.00,,,0.00,Weather View 32 v70,2013-07-28 12:43:00,
2013-07-28 05:48:00,57.6,49.0,29.94,West,275,5.0,21.0,73,0.00,,,0.00,Weather View 32 v70,2013-07-28 12:48:00,
2013-07-28 05:53:00,57.6,49.0,29.94,WSW,254,6.0,21.0,73,0.00,,,0.00,Weather View 32 v70,2013-07-28 12:53:00,
2013-07-28 05:58:00,57.5,48.9,29.95,West,273,6.0,21.0,73,0.00,,,0.00,Weather View 32 v70,2013-07-28 12:58:00,
2013-07-28 06:03:00,57.3,49.1,29.94,North,0,8.0,21.0,74,0.00,,,0.00,Weather View 32 v70,2013-07-28 13:03:00,
2013-07-28 06:08:00,57.2,49.0,29.94,West,265,3.0,21.0,74,0.00,,,0.00,Weather View 32 v70,2013-07-28 13:08:00,
2013-07-28 06:13:00,57.2,49.0,29.94,West,259,13.0,21.0,74,0.00,,,0.00,Weather View 32 v70,2013-07-28 13:13:00,
2013-07-28 06:18:00,57.0,49.1,29.95,West,280,3.0,21.0,75,0.00,,,0.00,Weather View 32 v70,2013-07-28 13:18:00,
2013-07-28 06:23:00,57.0,49.1,29.95,SW,221,13.0,21.0,75,0.00,,,0.00,Weather View 32 v70,2013-07-28 13:23:00,
2013-07-28 06:28:00,57.3,49.1,29.95,WNW,286,5.0,22.0,74,0.00,,,0.00,Weather View 32 v70,2013-07-28 13:28:00,
2013-07-28 06:33:00,57.5,48.9,29.95,WSW,240,14.0,22.0,73,0.00,,,0.00,Weather View 32 v70,2013-07-28 13:33:00,
2013-07-28 06:38:00,57.6,49.0,29.95,West,265,13.0,22.0,73,0.00,,,0.00,Weather View 32 v70,2013-07-28 13:38:00,
2013-07-28 06:43:00,57.6,49.0,29.95,West,263,6.0,22.0,73,0.00,,,0.00,Weather View 32 v70,2013-07-28 13:43:00,
2013-07-28 06:48:00,57.6,49.0,29.96,WSW,240,12.0,22.0,73,0.00,,,0.00,Weather View 32 v70,2013-07-28 13:48:00,
2013-07-28 06:53:00,57.8,49.2,29.96,West,259,5.0,22.0,73,0.00,,,0.00,Weather View 32 v70,2013-07-28 13:53:00,
2013-07-28 06:58:00,57.8,48.8,29.96,West,277,5.0,22.0,72,0.00,,,0.00,Weather View 32 v70,2013-07-28 13:58:00,
2013-07-28 07:03:00,58.0,49.0,29.96,West,265,3.0,22.0,72,0.00,,,0.00,Weather View 32 v70,2013-07-28 14:03:00,
2013-07-28 07:08:00,58.0,48.6,29.96,West,265,5.0,22.0,71,0.00,,,0.00,Weather View 32 v70,2013-07-28 14:08:00,
2013-07-28 07:13:00,58.3,48.9,29.96,West,271,7.0,22.0,71,0.00,,,0.00,Weather View 32 v70,2013-07-28 14:13:00,
2013-07-28 07:18:00,58.3,48.5,29.96,West,273,6.0,22.0,70,0.00,,,0.00,Weather View 32 v70,2013-07-28 14:18:00,
2013-07-28 07:23:00,58.6,48.4,29.96,WSW,247,6.0,22.0,69,0.00,,,0.00,Weather View 32 v70,2013-07-28 14:23:00,
2013-07-28 07:28:00,58.7,48.5,29.96,WSW,252,12.0,22.0,69,0.00,,,0.00,Weather View 32 v70,2013-07-28 14:28:00,
2013-07-28 07:33:00,58.7,48.5,29.96,WSW,253,6.0,19.0,69,0.00,,,0.00,Weather View 32 v70,2013-07-28 14:33:00,
2013-07-28 07:38:00,58.7,48.5,29.96,WSW,248,10.0,19.0,69,0.00,,,0.00,Weather View 32 v70,2013-07-28 14:38:00,
2013-07-28 07:43:00,59.0,48.8,29.96,West,273,6.0,19.0,69,0.00,,,0.00,Weather View 32 v70,2013-07-28 14:43:00,
2013-07-28 07:48:00,59.2,48.6,29.96,West,262,14.0,19.0,68,0.00,,,0.00,Weather View 32 v70,2013-07-28 14:48:00,
2013-07-28 07:53:00,59.2,48.6,29.96,West,266,9.0,19.0,68,0.00,,,0.00,Weather View 32 v70,2013-07-28 14:53:00,
2013-07-28 07:58:00,59.3,48.7,29.96,NW,304,7.0,19.0,68,0.00,,,0.00,Weather View 32 v70,2013-07-28 14:58:00,
2013-07-28 08:03:00,59.3,48.7,29.96,WNW,296,11.0,19.0,68,0.00,,,0.00,Weather View 32 v70,2013-07-28 15:03:00,
2013-07-28 08:08:00,59.5,48.5,29.96,WNW,283,9.0,19.0,67,0.00,,,0.00,Weather View 32 v70,2013-07-28 15:08:00,
2013-07-28 08:13:00,59.6,48.6,29.96,WSW,258,8.0,19.0,67,0.00,,,0.00,Weather View 32 v70,2013-07-28 15:13:00,
2013-07-28 08:18:00,59.9,48.5,29.96,NW,304,3.0,19.0,66,0.00,,,0.00,Weather View 32 v70,2013-07-28 15:18:00,
2013-07-28 08:23:00,60.1,49.1,29.96,West,261,4.0,24.0,67,0.00,,,0.00,Weather View 32 v70,2013-07-28 15:23:00,
2013-07-28 08:28:00,60.4,49.0,29.95,WNW,287,5.0,24.0,66,0.00,,,0.00,Weather View 32 v70,2013-07-28 15:28:00,
2013-07-28 08:33:00,60.4,48.6,29.95,WNW,285,8.0,24.0,65,0.00,,,0.00,Weather View 32 v70,2013-07-28 15:33:00,
2013-07-28 08:38:00,60.4,48.6,29.95,WSW,244,13.0,24.0,65,0.00,,,0.00,Weather View 32 v70,2013-07-28 15:38:00,
2013-07-28 08:43:00,60.4,49.0,29.95,WSW,251,12.0,24.0,66,0.00,,,0.00,Weather View 32 v70,2013-07-28 15:43:00,
2013-07-28 08:48:00,60.9,49.0,29.96,West,276,8.0,24.0,65,0.00,,,0.00,Weather View 32 v70,2013-07-28 15:48:00,
2013-07-28 08:53:00,61.0,48.7,29.95,WSW,258,9.0,24.0,64,0.00,,,0.00,Weather View 32 v70,2013-07-28 15:53:00,
2013-07-28 08:58:00,61.3,48.6,29.95,NW,305,6.0,24.0,63,0.00,,,0.00,Weather View 32 v70,2013-07-28 15:58:00,
2013-07-28 09:03:00,61.5,48.8,29.95,West,281,7.0,24.0,63,0.00,,,0.00,Weather View 32 v70,2013-07-28 16:03:00,
2013-07-28 09:08:00,61.8,49.0,29.95,SW,229,4.0,24.0,63,0.00,,,0.00,Weather View 32 v70,2013-07-28 16:08:00,
2013-07-28 09:13:00,61.5,49.2,29.95,WNW,292,3.0,24.0,64,0.00,,,0.00,Weather View 32 v70,2013-07-28 16:13:00,
2013-07-28 09:18:00,62.1,49.3,29.95,West,261,8.0,24.0,63,0.00,,,0.00,Weather View 32 v70,2013-07-28 16:18:00,
2013-07-28 09:23:00,62.1,49.3,29.94,West,271,8.0,21.0,63,0.00,,,0.00,Weather View 32 v70,2013-07-28 16:23:00,
2013-07-28 09:28:00,62.3,49.5,29.94,WNW,286,6.0,21.0,63,0.00,,,0.00,Weather View 32 v70,2013-07-28 16:28:00,
2013-07-28 09:33:00,62.7,49.5,29.94,WNW,294,5.0,21.0,62,0.00,,,0.00,Weather View 32 v70,2013-07-28 16:33:00,
2013-07-28 09:38:00,62.9,49.6,29.93,WSW,248,19.0,21.0,62,0.00,,,0.00,Weather View 32 v70,2013-07-28 16:38:00,
2013-07-28 09:43:00,63.1,49.8,29.93,NW,304,8.0,19.0,62,0.00,,,0.00,Weather View 32 v70,2013-07-28 16:43:00,
2013-07-28 09:48:00,63.4,49.7,29.93,WNW,290,5.0,19.0,61,0.00,,,0.00,Weather View 32 v70,2013-07-28 16:48:00,
2013-07-28 09:53:00,63.5,49.3,29.93,WNW,295,5.0,19.0,60,0.00,,,0.00,Weather View 32 v70,2013-07-28 16:53:00,
2013-07-28 09:58:00,63.9,49.7,29.93,West,272,7.0,22.0,60,0.00,,,0.00,Weather View 32 v70,2013-07-28 16:58:00,
2013-07-28 10:03:00,64.2,49.5,29.93,West,277,4.0,22.0,59,0.00,,,0.00,Weather View 32 v70,2013-07-28 17:03:00,
2013-07-28 10:08:00,64.3,49.6,29.93,NW,321,9.0,22.0,59,0.00,,,0.00,Weather View 32 v70,2013-07-28 17:08:00,
2013-07-28 10:13:00,64.2,49.5,29.93,WNW,298,12.0,22.0,59,0.00,,,0.00,Weather View 32 v70,2013-07-28 17:13:00,
2013-07-28 10:18:00,64.3,49.6,29.93,West,279,7.0,22.0,59,0.00,,,0.00,Weather View 32 v70,2013-07-28 17:18:00,
2013-07-28 10:23:00,64.0,49.3,29.93,WSW,242,13.0,25.0,59,0.00,,,0.00,Weather View 32 v70,2013-07-28 17:23:00,
2013-07-28 10:28:00,64.2,49.5,29.93,West,268,18.0,25.0,59,0.00,,,0.00,Weather View 32 v70,2013-07-28 17:28:00,
2013-07-28 10:33:00,64.5,50.3,29.93,SW,226,10.0,25.0,60,0.00,,,0.00,Weather View 32 v70,2013-07-28 17:33:00,
2013-07-28 10:38:00,65.2,50.5,29.93,West,269,2.0,25.0,59,0.00,,,0.00,Weather View 32 v70,2013-07-28 17:38:00,
2013-07-28 10:43:00,65.5,50.3,29.93,West,278,7.0,25.0,58,0.00,,,0.00,Weather View 32 v70,2013-07-28 17:43:00,
2013-07-28 10:48:00,65.5,49.8,29.93,NNW,327,8.0,25.0,57,0.00,,,0.00,Weather View 32 v70,2013-07-28 17:48:00,
2013-07-28 10:53:00,65.6,50.4,29.93,West,279,8.0,25.0,58,0.00,,,0.00,Weather View 32 v70,2013-07-28 17:53:00,
2013-07-28 10:58:00,66.1,49.9,29.93,WSW,257,10.0,25.0,56,0.00,,,0.00,Weather View 32 v70,2013-07-28 17:58:00,
2013-07-28 11:03:00,66.1,49.9,29.93,WNW,301,10.0,25.0,56,0.00,,,0.00,Weather View 32 v70,2013-07-28 18:03:00,
2013-07-28 11:08:00,66.1,50.4,29.93,WNW,284,7.0,25.0,57,0.00,,,0.00,Weather View 32 v70,2013-07-28 18:08:00,
2013-07-28 11:13:00,66.3,50.6,29.93,NW,317,9.0,25.0,57,0.00,,,0.00,Weather View 32 v70,2013-07-28 18:13:00,
2013-07-28 11:18:00,66.4,50.2,29.92,West,275,12.0,25.0,56,0.00,,,0.00,Weather View 32 v70,2013-07-28 18:18:00,
2013-07-28 11:23:00,66.4,50.2,29.93,West,260,5.0,24.0,56,0.00,,,0.00,Weather View 32 v70,2013-07-28 18:23:00,
2013-07-28 11:28:00,66.6,49.9,29.92,SW,229,3.0,22.0,55,0.00,,,0.00,Weather View 32 v70,2013-07-28 18:28:00,
2013-07-28 11:33:00,67.1,50.3,29.92,WSW,244,12.0,22.0,55,0.00,,,0.00,Weather View 32 v70,2013-07-28 18:33:00,
2013-07-28 11:38:00,67.6,50.3,29.92,WNW,294,13.0,22.0,54,0.00,,,0.00,Weather View 32 v70,2013-07-28 18:38:00,
2013-07-28 11:43:00,67.3,49.5,29.92,WSW,238,11.0,21.0,53,0.00,,,0.00,Weather View 32 v70,2013-07-28 18:43:00,
2013-07-28 11:48:00,67.1,49.9,29.92,WSW,238,5.0,21.0,54,0.00,,,0.00,Weather View 32 v70,2013-07-28 18:48:00,
2013-07-28 11:53:00,67.1,49.9,29.92,WNW,282,4.0,21.0,54,0.00,,,0.00,Weather View 32 v70,2013-07-28 18:53:00,
2013-07-28 11:58:00,67.3,50.0,29.92,WSW,246,3.0,23.0,54,0.00,,,0.00,Weather View 32 v70,2013-07-28 18:58:00,
2013-07-28 12:03:00,67.4,49.6,29.91,WNW,287,4.0,23.0,53,0.00,,,0.00,Weather View 32 v70,2013-07-28 19:03:00,
2013-07-28 12:08:00,67.6,50.3,29.92,NW,306,10.0,23.0,54,0.00,,,0.00,Weather View 32 v70,2013-07-28 19:08:00,
2013-07-28 12:13:00,67.3,50.0,29.92,NW,306,15.0,23.0,54,0.00,,,0.00,Weather View 32 v70,2013-07-28 19:13:00,
2013-07-28 12:18:00,67.8,50.5,29.91,West,271,1.0,23.0,54,0.00,,,0.00,Weather View 32 v70,2013-07-28 19:18:00,
2013-07-28 12:23:00,68.1,50.3,29.92,West,262,9.0,23.0,53,0.00,,,0.00,Weather View 32 v70,2013-07-28 19:23:00,
2013-07-28 12:28:00,68.3,50.5,29.91,West,269,7.0,23.0,53,0.00,,,0.00,Weather View 32 v70,2013-07-28 19:28:00,
2013-07-28 12:33:00,68.1,49.8,29.91,WSW,252,14.0,23.0,52,0.00,,,0.00,Weather View 32 v70,2013-07-28 19:33:00,
2013-07-28 12:38:00,68.8,49.9,29.91,SW,227,9.0,23.0,51,0.00,,,0.00,Weather View 32 v70,2013-07-28 19:38:00,
2013-07-28 12:43:00,68.9,50.0,29.91,West,261,15.0,23.0,51,0.00,,,0.00,Weather View 32 v70,2013-07-28 19:43:00,
2013-07-28 12:48:00,69.4,50.4,29.91,SW,217,6.0,23.0,51,0.00,,,0.00,Weather View 32 v70,2013-07-28 19:48:00,
2013-07-28 12:53:00,69.6,50.1,29.90,SW,220,13.0,24.0,50,0.00,,,0.00,Weather View 32 v70,2013-07-28 19:53:00,
2013-07-28 12:58:00,69.4,49.9,29.90,WSW,237,16.0,24.0,50,0.00,,,0.00,Weather View 32 v70,2013-07-28 19:58:00,
2013-07-28 13:03:00,69.1,49.6,29.91,SW,233,12.0,24.0,50,0.00,,,0.00,Weather View 32 v70,2013-07-28 20:03:00,
2013-07-28 13:08:00,69.8,49.7,29.90,WSW,250,12.0,24.0,49,0.00,,,0.00,Weather View 32 v70,2013-07-28 20:08:00,
2013-07-28 13:13:00,70.1,50.5,29.91,West,259,7.0,24.0,50,0.00,,,0.00,Weather View 32 v70,2013-07-28 20:13:00,
2013-07-28 13:18:00,69.8,49.7,29.91,West,265,6.0,24.0,49,0.00,,,0.00,Weather View 32 v70,2013-07-28 20:18:00,
2013-07-28 13:23:00,70.3,50.7,29.91,WNW,301,13.0,24.0,50,0.00,,,0.00,Weather View 32 v70,2013-07-28 20:23:00,
2013-07-28 13:28:00,69.8,49.7,29.90,West,261,8.0,24.0,49,0.00,,,0.00,Weather View 32 v70,2013-07-28 20:28:00,
2013-07-28 13:33:00,70.3,50.7,29.90,West,262,9.0,24.0,50,0.00,,,0.00,Weather View 32 v70,2013-07-28 20:33:00,
2013-07-28 13:38:00,70.8,51.2,29.90,West,263,6.0,24.0,50,0.00,,,0.00,Weather View 32 v70,2013-07-28 20:38:00,
2013-07-28 13:43:00,70.9,50.7,29.90,WNW,293,29.0,29.0,49,0.00,,,0.00,Weather View 32 v70,2013-07-28 20:43:00,
2013-07-28 13:48:00,70.9,50.7,29.89,WNW,294,9.0,29.0,49,0.00,,,0.00,Weather View 32 v70,2013-07-28 20:48:00,
2013-07-28 13:53:00,71.1,51.5,29.89,WSW,248,22.0,29.0,50,0.00,,,0.00,Weather View 32 v70,2013-07-28 20:53:00,
2013-07-28 13:58:00,71.1,50.9,29.89,West,275,8.0,29.0,49,0.00,,,0.00,Weather View 32 v70,2013-07-28 20:58:00,
2013-07-28 14:03:00,71.8,50.4,29.89,WSW,257,4.0,29.0,47,0.00,,,0.00,Weather View 32 v70,2013-07-28 21:03:00,
2013-07-28 14:08:00,72.0,50.0,29.89,WNW,298,8.0,29.0,46,0.00,,,0.00,Weather View 32 v70,2013-07-28 21:08:00,
2013-07-28 14:13:00,71.5,50.7,29.89,SW,232,14.0,30.0,48,0.00,,,0.00,Weather View 32 v70,2013-07-28 21:13:00,
2013-07-28 14:18:00,71.5,50.7,29.88,WNW,287,10.0,30.0,48,0.00,,,0.00,Weather View 32 v70,2013-07-28 21:18:00,
2013-07-28 14:23:00,71.6,50.8,29.88,West,263,16.0,30.0,48,0.00,,,0.00,Weather View 32 v70,2013-07-28 21:23:00,
2013-07-28 14:28:00,71.6,50.8,29.88,West,277,9.0,30.0,48,0.00,,,0.00,Weather View 32 v70,2013-07-28 21:28:00,
2013-07-28 14:33:00,71.8,51.0,29.88,West,281,5.0,30.0,48,0.00,,,0.00,Weather View 32 v70,2013-07-28 21:33:00,
2013-07-28 14:38:00,72.5,51.1,29.88,West,262,12.0,30.0,47,0.00,,,0.00,Weather View 32 v70,2013-07-28 21:38:00,
2013-07-28 14:43:00,72.3,50.3,29.88,West,266,6.0,30.0,46,0.00,,,0.00,Weather View 32 v70,2013-07-28 21:43:00,
2013-07-28 14:48:00,72.3,50.3,29.87,WNW,292,7.0,30.0,46,0.00,,,0.00,Weather View 32 v70,2013-07-28 21:48:00,
2013-07-28 14:53:00,72.3,49.7,29.88,WSW,257,14.0,30.0,45,0.00,,,0.00,Weather View 32 v70,2013-07-28 21:53:00,
2013-07-28 14:58:00,72.3,49.7,29.87,WNW,288,22.0,30.0,45,0.00,,,0.00,Weather View 32 v70,2013-07-28 21:58:00,
2013-07-28 15:03:00,72.5,49.3,29.87,WNW,301,16.0,30.0,44,0.00,,,0.00,Weather View 32 v70,2013-07-28 22:03:00,
2013-07-28 15:08:00,72.8,49.6,29.88,WNW,294,4.0,30.0,44,0.00,,,0.00,Weather View 32 v70,2013-07-28 22:08:00,
2013-07-28 15:13:00,73.0,49.7,29.87,WSW,250,18.0,30.0,44,0.00,,,0.00,Weather View 32 v70,2013-07-28 22:13:00,
2013-07-28 15:18:00,73.2,49.3,29.87,WNW,282,5.0,30.0,43,0.00,,,0.00,Weather View 32 v70,2013-07-28 22:18:00,
2013-07-28 15:23:00,73.5,49.6,29.88,WNW,284,19.0,30.0,43,0.00,,,0.00,Weather View 32 v70,2013-07-28 22:23:00,
2013-07-28 15:28:00,73.3,50.0,29.88,West,277,6.0,30.0,44,0.00,,,0.00,Weather View 32 v70,2013-07-28 22:28:00,
2013-07-28 15:33:00,73.5,49.6,29.88,West,272,21.0,30.0,43,0.00,,,0.00,Weather View 32 v70,2013-07-28 22:33:00,
2013-07-28 15:38:00,73.2,49.3,29.88,SW,233,11.0,30.0,43,0.00,,,0.00,Weather View 32 v70,2013-07-28 22:38:00,
2013-07-28 15:43:00,73.2,49.3,29.88,WSW,247,10.0,30.0,43,0.00,,,0.00,Weather View 32 v70,2013-07-28 22:43:00,
2013-07-28 15:48:00,73.2,49.9,29.88,SW,218,12.0,30.0,44,0.00,,,0.00,Weather View 32 v70,2013-07-28 22:48:00,
2013-07-28 15:53:00,73.0,50.3,29.88,NW,312,13.0,30.0,45,0.00,,,0.00,Weather View 32 v70,2013-07-28 22:53:00,
2013-07-28 15:58:00,72.8,50.2,29.88,WSW,257,11.0,30.0,45,0.00,,,0.00,Weather View 32 v70,2013-07-28 22:58:00,
2013-07-28 16:03:00,73.0,50.3,29.88,WNW,284,11.0,30.0,45,0.00,,,0.00,Weather View 32 v70,2013-07-28 23:03:00,
2013-07-28 16:08:00,73.2,50.5,29.89,West,281,6.0,28.0,45,0.00,,,0.00,Weather View 32 v70,2013-07-28 23:08:00,
2013-07-28 16:13:00,73.2,51.1,29.89,WNW,289,6.0,28.0,46,0.00,,,0.00,Weather View 32 v70,2013-07-28 23:13:00,
2013-07-28 16:18:00,73.0,50.9,29.89,West,262,15.0,28.0,46,0.00,,,0.00,Weather View 32 v70,2013-07-28 23:18:00,
2013-07-28 16:23:00,73.2,51.1,29.89,WNW,284,3.0,28.0,46,0.00,,,0.00,Weather View 32 v70,2013-07-28 23:23:00,
2013-07-28 16:28:00,73.7,51.0,29.89,West,278,6.0,28.0,45,0.00,,,0.00,Weather View 32 v70,2013-07-28 23:28:00,
2013-07-28 16:33:00,73.5,51.4,29.89,West,271,12.0,28.0,46,0.00,,,0.00,Weather View 32 v70,2013-07-28 23:33:00,
2013-07-28 16:38:00,73.3,50.6,29.89,NW,309,12.0,25.0,45,0.00,,,0.00,Weather View 32 v70,2013-07-28 23:38:00,
2013-07-28 16:43:00,73.5,50.8,29.89,WSW,257,9.0,25.0,45,0.00,,,0.00,Weather View 32 v70,2013-07-28 23:43:00,
2013-07-28 16:48:00,73.3,51.2,29.88,West,275,11.0,25.0,46,0.00,,,0.00,Weather View 32 v70,2013-07-28 23:48:00,
2013-07-28 16:53:00,73.2,50.5,29.88,SSW,201,8.0,25.0,45,0.00,,,0.00,Weather View 32 v70,2013-07-28 23:53:00,
2013-07-28 16:58:00,73.2,50.5,29.88,WSW,254,6.0,21.0,45,0.00,,,0.00,Weather View 32 v70,2013-07-28 23:58:00,
2013-07-28 17:03:00,73.0,50.9,29.88,West,262,7.0,21.0,46,0.00,,,0.00,Weather View 32 v70,2013-07-29 00:03:00,
2013-07-28 17:08:00,73.3,50.0,29.88,WNW,302,9.0,21.0,44,0.00,,,0.00,Weather View 32 v70,2013-07-29 00:08:00,
2013-07-28 17:12:00,73.5,50.2,29.88,West,270,10.0,21.0,44,0.00,,,0.00,Weather View 32 v70,2013-07-29 00:12:00,
2013-07-28 17:17:00,73.3,50.6,29.88,WNW,295,2.0,18.0,45,0.00,,,0.00,Weather View 32 v70,2013-07-29 00:17:00,
2013-07-28 17:23:00,73.5,49.6,29.88,WSW,252,9.0,18.0,43,0.00,,,0.00,Weather View 32 v70,2013-07-29 00:23:00,
2013-07-28 17:28:00,73.3,50.0,29.87,WSW,247,4.0,18.0,44,0.00,,,0.00,Weather View 32 v70,2013-07-29 00:28:00,
2013-07-28 17:33:00,73.7,50.4,29.87,WNW,296,6.0,18.0,44,0.00,,,0.00,Weather View 32 v70,2013-07-29 00:33:00,
2013-07-28 17:38:00,73.3,50.0,29.87,WNW,291,3.0,18.0,44,0.00,,,0.00,Weather View 32 v70,2013-07-29 00:38:00,
2013-07-28 17:43:00,73.5,49.6,29.87,WSW,254,6.0,18.0,43,0.00,,,0.00,Weather View 32 v70,2013-07-29 00:43:00,
2013-07-28 17:48:00,73.3,50.0,29.87,NW,319,2.0,18.0,44,0.00,,,0.00,Weather View 32 v70,2013-07-29 00:48:00,
2013-07-28 17:53:00,73.3,50.0,29.87,WSW,246,1.0,18.0,44,0.00,,,0.00,Weather View 32 v70,2013-07-29 00:53:00,
2013-07-28 17:58:00,73.2,50.5,29.87,WNW,288,14.0,19.0,45,0.00,,,0.00,Weather View 32 v70,2013-07-29 00:58:00,
2013-07-28 18:03:00,72.7,50.1,29.87,WNW,287,8.0,19.0,45,0.00,,,0.00,Weather View 32 v70,2013-07-29 01:03:00,
2013-07-28 18:08:00,72.1,50.1,29.87,WSW,258,4.0,22.0,46,0.00,,,0.00,Weather View 32 v70,2013-07-29 01:08:00,
2013-07-28 18:13:00,72.1,50.7,29.86,WNW,285,3.0,22.0,47,0.00,,,0.00,Weather View 32 v70,2013-07-29 01:13:00,
2013-07-28 18:18:00,72.1,50.1,29.86,WSW,258,7.0,22.0,46,0.00,,,0.00,Weather View 32 v70,2013-07-29 01:18:00,
2013-07-28 18:23:00,72.0,50.6,29.86,West,268,3.0,23.0,47,0.00,,,0.00,Weather View 32 v70,2013-07-29 01:23:00,
2013-07-28 18:28:00,71.6,50.8,29.87,West,275,3.0,23.0,48,0.00,,,0.00,Weather View 32 v70,2013-07-29 01:28:00,
2013-07-28 18:34:00,71.6,50.8,29.87,West,273,3.0,23.0,48,0.00,,,0.00,Weather View 32 v70,2013-07-29 01:34:00,
2013-07-28 18:39:00,71.8,50.4,29.87,SW,230,8.0,23.0,47,0.00,,,0.00,Weather View 32 v70,2013-07-29 01:39:00,
2013-07-28 18:44:00,71.5,50.7,29.86,WSW,257,15.0,23.0,48,0.00,,,0.00,Weather View 32 v70,2013-07-29 01:44:00,
2013-07-28 18:49:00,71.3,50.5,29.87,WSW,240,3.0,23.0,48,0.00,,,0.00,Weather View 32 v70,2013-07-29 01:49:00,
2013-07-28 18:54:00,71.5,50.2,29.87,West,276,3.0,23.0,47,0.00,,,0.00,Weather View 32 v70,2013-07-29 01:54:00,
2013-07-28 19:00:00,71.5,50.7,29.87,West,273,3.0,23.0,48,0.00,,,0.00,Weather View 32 v70,2013-07-29 02:00:00,
2013-07-28 19:05:00,71.1,50.4,29.87,WNW,292,8.0,23.0,48,0.00,,,0.00,Weather View 32 v70,2013-07-29 02:05:00,
2013-07-28 19:10:00,71.1,50.9,29.87,WNW,287,4.0,23.0,49,0.00,,,0.00,Weather View 32 v70,2013-07-29 02:10:00,
2013-07-28 19:15:00,70.9,50.2,29.87,West,265,5.0,23.0,48,0.00,,,0.00,Weather View 32 v70,2013-07-29 02:15:00,
2013-07-28 19:20:00,70.8,50.6,29.88,WNW,289,20.0,23.0,49,0.00,,,0.00,Weather View 32 v70,2013-07-29 02:20:00,
2013-07-28 19:26:00,70.4,50.3,29.87,NW,306,6.0,22.0,49,0.00,,,0.00,Weather View 32 v70,2013-07-29 02:26:00,
2013-07-28 19:31:00,70.4,50.3,29.88,West,275,6.0,22.0,49,0.00,,,0.00,Weather View 32 v70,2013-07-29 02:31:00,
2013-07-28 19:36:00,70.4,50.8,29.87,SW,215,9.0,22.0,50,0.00,,,0.00,Weather View 32 v70,2013-07-29 02:36:00,
2013-07-28 19:41:00,70.1,50.5,29.88,West,268,7.0,22.0,50,0.00,,,0.00,Weather View 32 v70,2013-07-29 02:41:00,
2013-07-28 19:46:00,69.9,50.4,29.88,WSW,257,18.0,22.0,50,0.00,,,0.00,Weather View 32 v70,2013-07-29 02:46:00,
2013-07-28 19:52:00,69.8,50.8,29.88,North,0,5.0,22.0,51,0.00,,,0.00,Weather View 32 v70,2013-07-29 02:52:00,
2013-07-28 19:57:00,69.6,50.6,29.88,WNW,288,7.0,22.0,51,0.00,,,0.00,Weather View 32 v70,2013-07-29 02:57:00,
2013-07-28 20:02:00,69.4,51.0,29.88,WNW,290,12.0,22.0,52,0.00,,,0.00,Weather View 32 v70,2013-07-29 03:02:00,
2013-07-28 20:07:00,69.3,50.9,29.88,WSW,252,6.0,22.0,52,0.00,,,0.00,Weather View 32 v70,2013-07-29 03:07:00,
2013-07-28 20:12:00,68.9,50.5,29.88,West,275,7.0,20.0,52,0.00,,,0.00,Weather View 32 v70,2013-07-29 03:12:00,
2013-07-28 20:17:00,68.6,50.7,29.88,West,269,2.0,20.0,53,0.00,,,0.00,Weather View 32 v70,2013-07-29 03:17:00,
2013-07-28 20:23:00,68.4,51.1,29.88,West,269,6.0,18.0,54,0.00,,,0.00,Weather View 32 v70,2013-07-29 03:23:00,
2013-07-28 20:28:00,68.1,51.8,29.88,West,264,5.0,18.0,56,0.00,,,0.00,Weather View 32 v70,2013-07-29 03:28:00,
2013-07-28 20:33:00,67.9,52.1,29.88,West,281,2.0,18.0,57,0.00,,,0.00,Weather View 32 v70,2013-07-29 03:33:00,
2013-07-28 20:38:00,67.8,52.0,29.88,WNW,296,0.0,18.0,57,0.00,,,0.00,Weather View 32 v70,2013-07-29 03:38:00,
2013-07-28 20:43:00,67.6,51.8,29.88,WNW,287,1.0,18.0,57,0.00,,,0.00,Weather View 32 v70,2013-07-29 03:43:00,
2013-07-28 20:48:00,67.4,51.6,29.87,West,262,2.0,15.0,57,0.00,,,0.00,Weather View 32 v70,2013-07-29 03:48:00,
2013-07-28 20:53:00,67.1,51.8,29.88,West,271,1.0,15.0,58,0.00,,,0.00,Weather View 32 v70,2013-07-29 03:53:00,
2013-07-28 20:58:00,66.9,51.6,29.88,NW,306,9.0,15.0,58,0.00,,,0.00,Weather View 32 v70,2013-07-29 03:58:00,
2013-07-28 21:01:00,66.9,51.6,29.88,West,269,2.0,15.0,58,0.00,,,0.00,Weather View 32 v70,2013-07-29 04:01:00,
2013-07-28 21:02:00,66.9,51.6,29.88,West,269,2.0,15.0,58,0.00,,,0.00,Weather View 32 v70,2013-07-29 04:02:00,
2013-07-28 21:07:00,66.8,51.5,29.87,WSW,258,7.0,15.0,58,0.00,,,0.00,Weather View 32 v70,2013-07-29 04:07:00,
2013-07-28 21:12:00,66.8,51.5,29.88,NNW,333,16.0,16.0,58,0.00,,,0.00,Weather View 32 v70,2013-07-29 04:12:00,
2013-07-28 21:17:00,66.8,51.5,29.87,West,263,5.0,17.0,58,0.00,,,0.00,Weather View 32 v70,2013-07-29 04:17:00,
2013-07-28 21:22:00,66.6,51.3,29.87,West,267,8.0,17.0,58,0.00,,,0.00,Weather View 32 v70,2013-07-29 04:22:00,
2013-07-28 21:27:00,66.6,51.3,29.87,WNW,296,6.0,19.0,58,0.00,,,0.00,Weather View 32 v70,2013-07-29 04:27:00,
2013-07-28 21:32:00,66.4,51.1,29.87,WNW,284,5.0,19.0,58,0.00,,,0.00,Weather View 32 v70,2013-07-29 04:32:00,
2013-07-28 21:37:00,66.4,51.6,29.87,West,270,10.0,19.0,59,0.00,,,0.00,Weather View 32 v70,2013-07-29 04:37:00,
2013-07-28 21:42:00,66.4,51.1,29.88,West,269,13.0,27.0,58,0.00,,,0.00,Weather View 32 v70,2013-07-29 04:42:00,
2013-07-28 21:47:00,66.3,51.5,29.87,West,263,5.0,27.0,59,0.00,,,0.00,Weather View 32 v70,2013-07-29 04:47:00,
2013-07-28 21:52:00,66.3,49.6,29.88,SW,232,11.0,27.0,55,0.00,,,0.00,Weather View 32 v70,2013-07-29 04:52:00,
2013-07-28 21:57:00,66.1,50.9,29.88,West,265,9.0,27.0,58,0.00,,,0.00,Weather View 32 v70,2013-07-29 04:57:00,
2013-07-28 22:02:00,66.0,51.2,29.88,West,281,4.0,27.0,59,0.00,,,0.00,Weather View 32 v70,2013-07-29 05:02:00,
2013-07-28 22:07:00,65.6,51.3,29.88,West,271,6.0,27.0,60,0.00,,,0.00,Weather View 32 v70,2013-07-29 05:07:00,
2013-07-28 22:12:00,65.3,51.5,29.88,West,279,7.0,27.0,61,0.00,,,0.00,Weather View 32 v70,2013-07-29 05:12:00,
2013-07-28 22:17:00,65.2,51.4,29.88,WSW,254,7.0,27.0,61,0.00,,,0.00,Weather View 32 v70,2013-07-29 05:17:00,
2013-07-28 22:22:00,65.0,51.2,29.88,West,270,4.0,27.0,61,0.00,,,0.00,Weather View 32 v70,2013-07-29 05:22:00,
2013-07-28 22:27:00,64.8,51.0,29.88,WNW,292,6.0,27.0,61,0.00,,,0.00,Weather View 32 v70,2013-07-29 05:27:00,
2013-07-28 22:32:00,64.7,50.9,29.88,West,273,9.0,27.0,61,0.00,,,0.00,Weather View 32 v70,2013-07-29 05:32:00,
2013-07-28 22:37:00,64.3,51.0,29.89,WSW,254,5.0,27.0,62,0.00,,,0.00,Weather View 32 v70,2013-07-29 05:37:00,
2013-07-28 22:42:00,64.3,50.5,29.88,SW,234,12.0,18.0,61,0.00,,,0.00,Weather View 32 v70,2013-07-29 05:42:00,
2013-07-28 22:47:00,64.2,50.9,29.88,SW,215,11.0,18.0,62,0.00,,,0.00,Weather View 32 v70,2013-07-29 05:47:00,
2013-07-28 22:52:00,64.0,50.7,29.89,WSW,253,7.0,18.0,62,0.00,,,0.00,Weather View 32 v70,2013-07-29 05:52:00,
2013-07-28 22:57:00,63.9,50.6,29.88,West,266,4.0,19.0,62,0.00,,,0.00,Weather View 32 v70,2013-07-29 05:57:00,
2013-07-28 23:02:00,63.7,50.4,29.89,West,264,5.0,19.0,62,0.00,,,0.00,Weather View 32 v70,2013-07-29 06:02:00,
2013-07-28 23:07:00,63.5,50.6,29.88,West,273,8.0,19.0,63,0.00,,,0.00,Weather View 32 v70,2013-07-29 06:07:00,
2013-07-28 23:12:00,63.5,50.6,29.89,WSW,247,2.0,19.0,63,0.00,,,0.00,Weather View 32 v70,2013-07-29 06:12:00,
2013-07-28 23:17:00,63.4,50.6,29.89,West,279,6.0,19.0,63,0.00,,,0.00,Weather View 32 v70,2013-07-29 06:17:00,
2013-07-28 23:22:00,63.1,50.7,29.89,West,266,5.0,19.0,64,0.00,,,0.00,Weather View 32 v70,2013-07-29 06:22:00,
2013-07-28 23:27:00,62.7,50.7,29.89,WNW,285,8.0,19.0,65,0.00,,,0.00,Weather View 32 v70,2013-07-29 06:27:00,
2013-07-28 23:32:00,62.4,50.4,29.89,West,259,6.0,19.0,65,0.00,,,0.00,Weather View 32 v70,2013-07-29 06:32:00,
2013-07-28 23:37:00,62.3,50.8,29.89,West,261,7.0,20.0,66,0.00,,,0.00,Weather View 32 v70,2013-07-29 06:37:00,
2013-07-28 23:42:00,62.4,50.9,29.89,West,275,9.0,20.0,66,0.00,,,0.00,Weather View 32 v70,2013-07-29 06:42:00,
2013-07-28 23:47:00,62.3,50.8,29.90,West,261,3.0,20.0,66,0.00,,,0.00,Weather View 32 v70,2013-07-29 06:47:00,
2013-07-28 23:52:00,62.0,50.5,29.90,WSW,246,2.0,20.0,66,0.00,,,0.00,Weather View 32 v70,2013-07-29 06:52:00,
2013-07-28 23:57:00,61.8,51.1,29.90,West,268,6.0,20.0,68,0.00,,,0.00,Weather View 32 v70,2013-07-29 06:57:00,